Terminal Aerodrome Forecast
Issued by NWS Aberdeen, SD

Home | Current Version | Previous Version | Text Only | Print | Product List | Glossary On
Versions: 1 2 3 4 5 6 7 8 9 10 11 12 13 14 15 16 17 18 19 20 21 22 23 24 25 26 27 28 29 30 31 32 33 34 35 36 37 38 39
000
FTAK31 PAFA 201131
TAFABR
TAF
PABR 201131Z 2012/2112 15015KT 3SM BLSN BR OVC035
     FM202000 14015KT P6SM VCSH BKN020 OVC040
     FM210300 13020KT 2SM BLSN BR OVC015
     FM210800 11030G37KT 1/4SM -SN BLSN FG OVC015=

USA.gov is the U.S. government's official web portal to all federal, state and local government web resources and services.